Torna al catalogo

COSMOS 2251 DEB

AttivoLEO
NORAD 34009·DEBRIS·🇷🇺 Russia

Lanciato Jun 16, 1993 da Plesetsk Cosmodrome

Loading…

Prossimi Passaggi (prossime 24 ore)

TLE

AggiornatoSource: Space-Track

Epoca: Sep 14, 2026, 06:33 UTC

1 34009U 93036GU  26257.27333843  .00000173  00000-0  72017-4 0  9994
2 34009  74.0374 193.3313 0028081 200.6616 310.6370 14.33399744918933

Traccia COSMOS 2251 DEB in tempo reale con AllMySat

Download on the App Store